Weather History for Lakeland Region, FL

Change the Weather History Date:

Tuesday, January 28, 2014

  Actual Average Record
Temperature  
Mean Temperature 66 °F -  
Max Temperature 78 °F 69 °F 84 °F (2002)
Min Temperature 53 °F 50 °F 29 °F (1986)
Growing Degree Days 16 (Base 50)    
Moisture  
Dew Point 57 °F    
Average Humidity 87    
Maximum Humidity 100    
Minimum Humidity 47    
Precipitation  
Precipitation 0.00 in - - ()
Sea Level Pressure  
Sea Level Pressure 30.02 in    
Wind  
Wind Speed 2 mph (SW)    
Max Wind Speed 9 mph    
Max Gust Speed -    
Visibility 6 miles    
Events Fog , Rain    
Averages and records for this station are not official NWS values.
T = Trace of Precipitation, MM = Missing Value Source: NWS Daily Summary

Daily Weather History Graph

Daily Weather History Graph

Search for Another Location

Airport:

Trip Planner

Search our weather history database for the weather conditions in past years. The results will help you decide how hot, cold, wet, or windy it might be!

Date:

Astronomy

Jan. 28, 2014 Rise Set
Actual Time 7:17 AM EST 6:05 PM EST
Civil Twilight 6:52 AM EST 6:30 PM EST
Nautical Twilight 6:24 AM EST 6:58 PM EST
Astronomical Twilight 5:56 AM EST 7:26 PM EST
Moon 4:54 AM EST (1/28) 3:56 PM EST (1/28)
Length of Visible Light 11h 37m
Length of Day
10h 48m
Waning Crescent, 7% of the Moon is Illuminated
Jan 28
Waning Crescent
Jan 30
New
Feb 6
First Quarter
Feb 14
Full
Feb 22
Last Quarter

Hourly Weather History & Observations

Time (EST) Temp. Dew Point Humidity Pressure Visibility Wind Dir Wind Speed Gust Speed Precip Events Conditions
12:15 AM 55.4 °F 55.4 °F 100% 30.04 in 0.2 mi Calm Calm - N/A Fog Fog
12:35 AM 55.4 °F 55.4 °F 100% 30.03 in 0.2 mi Calm Calm - N/A Fog Fog
12:55 AM 55.4 °F 55.4 °F 100% 30.03 in 0.2 mi Calm Calm - N/A Fog Fog
1:15 AM 55.4 °F 55.4 °F 100% 30.02 in 0.2 mi Calm Calm - N/A Fog Fog
1:35 AM 55.4 °F 55.4 °F 100% 30.02 in 0.2 mi Calm Calm - N/A Fog Fog
1:55 AM 55.4 °F 55.4 °F 100% 30.02 in 0.2 mi Calm Calm - N/A Fog Fog
2:15 AM 53.6 °F 53.6 °F 100% 30.01 in 0.2 mi Calm Calm - N/A Fog Fog
2:35 AM 53.6 °F 53.6 °F 100% 30.01 in 0.2 mi Calm Calm - N/A Fog Fog
2:55 AM 53.6 °F 53.6 °F 100% 30.00 in 0.2 mi Calm Calm - N/A Fog Fog
3:15 AM 53.6 °F 53.6 °F 100% 30.00 in 0.2 mi Calm Calm - N/A Fog Fog
3:35 AM 53.6 °F 53.6 °F 100% 30.00 in 0.2 mi Calm Calm - N/A Fog Fog
3:55 AM 53.6 °F 53.6 °F 100% 30.00 in 0.2 mi Calm Calm - N/A Fog Fog
4:15 AM 53.6 °F 53.6 °F 100% 30.00 in 0.2 mi Calm Calm - N/A Fog Fog
4:35 AM 53.6 °F 53.6 °F 100% 30.01 in 0.2 mi Calm Calm - N/A Fog Fog
4:55 AM 53.6 °F 53.6 °F 100% 30.00 in 0.2 mi Calm Calm - N/A Fog Fog
5:15 AM 53.6 °F 53.6 °F 100% 30.01 in 0.2 mi Calm Calm - N/A Fog Fog
5:35 AM 53.6 °F 53.6 °F 100% 30.01 in 0.2 mi Calm Calm - N/A Fog Fog
5:50 AM 53.6 °F 53.6 °F 100% 30.01 in 0.2 mi Calm Calm - N/A Fog Fog
6:50 AM 53.6 °F 53.6 °F 100% 30.04 in 4.0 mi Calm Calm - N/A   Scattered Clouds
7:50 AM 53.6 °F 53.6 °F 100% 30.05 in 7.0 mi Calm Calm - N/A   Scattered Clouds
8:50 AM 60.8 °F 60.8 °F 100% 30.06 in 10.0 mi Calm Calm - N/A   Scattered Clouds
9:50 AM 62.6 °F 62.6 °F 100% 30.07 in 10.0 mi SSW 4.6 mph - N/A   Scattered Clouds
10:45 AM 73.4 °F 60.8 °F 65% 30.08 in 10.0 mi SW 8.1 mph - N/A   Scattered Clouds
11:45 AM 75.2 °F 57.2 °F 53% 30.07 in 10.0 mi SW 5.8 mph - N/A   Scattered Clouds
12:53 PM 78.8 °F 57.2 °F 47% 30.03 in 10.0 mi WSW 8.1 mph - N/A   Mostly Cloudy
1:50 PM 78.8 °F 57.2 °F 47% 29.99 in 10.0 mi West 6.9 mph - N/A   Mostly Cloudy
2:55 PM 78.8 °F 57.2 °F 47% 29.98 in 10.0 mi West 9.2 mph - N/A   Mostly Cloudy
3:51 PM 78.8 °F 59.0 °F 51% 29.97 in 15.0 mi West 6.9 mph - N/A   Mostly Cloudy
4:54 PM 77.0 °F 60.8 °F 57% 29.98 in 15.0 mi West 6.9 mph - N/A   Scattered Clouds
5:51 PM 71.6 °F 60.8 °F 69% 29.99 in 15.0 mi West 4.6 mph - N/A   Mostly Cloudy
6:54 PM 69.8 °F 60.8 °F 73% 30.00 in 15.0 mi West 6.9 mph - N/A   Mostly Cloudy
7:50 PM 68.0 °F 60.8 °F 78% 30.01 in 10.0 mi SSW 4.6 mph - N/A   Mostly Cloudy
8:52 PM 68.0 °F 60.8 °F 78% 30.04 in 10.0 mi WNW 5.8 mph - N/A   Mostly Cloudy
9:51 PM 66.2 °F 60.8 °F 83% 30.02 in 10.0 mi North - - N/A   Overcast
9:55 PM 64.4 °F 60.8 °F 88% 30.01 in 10.0 mi SSE 4.6 mph - N/A   Scattered Clouds
10:15 PM 64.4 °F 60.8 °F 88% 30.02 in 10.0 mi South 4.6 mph - N/A   Clear
10:35 PM 64.4 °F 60.8 °F 88% 30.02 in 10.0 mi SSW 5.8 mph - N/A   Scattered Clouds
10:55 PM 64.4 °F 60.8 °F 88% 30.02 in 10.0 mi SW 3.5 mph - N/A   Clear
11:15 PM 64.4 °F 60.8 °F 88% 30.02 in 10.0 mi SW 5.8 mph - N/A   Clear
11:35 PM 64.4 °F 60.8 °F 88% 30.01 in 10.0 mi SSW 3.5 mph - N/A   Scattered Clouds
11:55 PM 64.4 °F 60.8 °F 88% 30.01 in 10.0 mi Calm Calm - N/A Rain Light Rain